Weather History for Provincetown, MA

Change the Weather History Date:

Monday, February 17, 2014

  Actual Average Record
Temperature  
Mean Temperature 22 °F -  
Max Temperature 26 °F 36 °F 55 °F (2006)
Min Temperature 19 °F 25 °F 10 °F (1958)
Degree Days  
Heating Degree Days 42    
Moisture  
Dew Point 9 °F    
Average Humidity 53    
Maximum Humidity 68    
Minimum Humidity 43    
Precipitation  
Precipitation 0.33 in - - ()
Sea Level Pressure  
Sea Level Pressure 30.19 in    
Wind  
Wind Speed 21 mph (NW)    
Max Wind Speed 28 mph    
Max Gust Speed 37 mph    
Visibility 10 miles    
Events      
Averages and records for this station are not official NWS values.
T = Trace of Precipitation, MM = Missing Value Source: NWS Daily Summary

Daily Weather History Graph

Daily Weather History Graph

Search for Another Location

Airport:

Trip Planner

Search our weather history database for the weather conditions in past years. The results will help you decide how hot, cold, wet, or windy it might be!

Date:

Astronomy

Feb. 17, 2014 Rise Set
Actual Time 6:34 AM EST 5:16 PM EST
Civil Twilight 6:05 AM EST 5:44 PM EST
Nautical Twilight 5:32 AM EST 6:17 PM EST
Astronomical Twilight 5:00 AM EST 6:49 PM EST
Moon 8:11 PM EST (2/17) 7:29 AM EST (2/17)
Length of Visible Light 11h 39m
Length of Day
10h 42m
Waning Gibbous, 93% of the Moon is Illuminated
Feb 17
Waning Gibbous
Feb 22
Last Quarter
Mar 1
New
Mar 8
First Quarter
Mar 16
Full

Hourly Weather History & Observations

Time (EST) Temp. Windchill Dew Point Humidity Pressure Visibility Wind Dir Wind Speed Gust Speed Precip Events Conditions
12:15 AM 26.6 °F 13.4 °F 12.2 °F 55% 29.94 in 10.0 mi NW 18.4 mph 23.0 mph N/A   Clear
12:35 AM 26.6 °F 12.7 °F 12.2 °F 55% 29.94 in 10.0 mi NW 20.7 mph 25.3 mph N/A   Clear
12:55 AM 26.6 °F 13.1 °F 12.2 °F 55% 29.95 in 10.0 mi NW 19.6 mph 27.6 mph N/A   Partly Cloudy
1:15 AM 24.8 °F 10.3 °F 10.4 °F 54% 29.96 in 10.0 mi NW 20.7 mph 26.5 mph N/A   Partly Cloudy
1:35 AM 24.8 °F 9.6 °F 10.4 °F 54% 29.96 in 10.0 mi NNW 23.0 mph 27.6 mph 0.01 in   Clear
1:55 AM 24.8 °F 9.0 °F 8.6 °F 50% 29.98 in 10.0 mi NW 25.3 mph 34.5 mph 0.03 in   Clear
2:15 AM 23.0 °F 6.3 °F 6.8 °F 50% 29.98 in 10.0 mi NNW 26.5 mph 35.7 mph 0.01 in   Clear
2:35 AM 21.2 °F 3.9 °F 8.6 °F 58% 29.99 in 10.0 mi NW 26.5 mph 34.5 mph 0.01 in   Scattered Clouds
2:55 AM 21.2 °F 4.9 °F 8.6 °F 58% 29.99 in 10.0 mi NW 23.0 mph 33.4 mph 0.02 in   Partly Cloudy
3:15 AM 21.2 °F 4.9 °F 6.8 °F 54% 30.00 in 10.0 mi NW 23.0 mph 32.2 mph N/A   Clear
3:35 AM 21.2 °F 4.2 °F 6.8 °F 54% 30.01 in 10.0 mi NW 25.3 mph 33.4 mph N/A   Clear
3:55 AM 19.4 °F 2.5 °F 6.8 °F 58% 30.02 in 10.0 mi NW 23.0 mph 32.2 mph N/A   Clear
4:15 AM 19.4 °F 1.4 °F 6.8 °F 58% 30.02 in 10.0 mi WNW 26.5 mph 35.7 mph 0.01 in   Clear
4:35 AM 19.4 °F 2.1 °F 6.8 °F 58% 30.03 in 10.0 mi NW 24.2 mph 34.5 mph 0.01 in   Clear
4:55 AM 19.4 °F 2.1 °F 6.8 °F 58% 30.04 in 10.0 mi NW 24.2 mph 36.8 mph 0.01 in   Clear
5:15 AM 19.4 °F 1.8 °F 8.6 °F 63% 30.05 in 10.0 mi NW 25.3 mph 32.2 mph N/A   Clear
5:35 AM 19.4 °F 2.5 °F 6.8 °F 58% 30.06 in 10.0 mi NW 23.0 mph 34.5 mph 0.02 in   Clear
5:55 AM 19.4 °F 1.8 °F 8.6 °F 63% 30.07 in 10.0 mi NW 25.3 mph 33.4 mph 0.02 in   Clear
6:15 AM 19.4 °F 2.5 °F 8.6 °F 63% 30.08 in 10.0 mi NW 23.0 mph 33.4 mph N/A   Clear
6:35 AM 19.4 °F 2.5 °F 8.6 °F 63% 30.10 in 10.0 mi NW 23.0 mph 32.2 mph 0.01 in   Clear
6:55 AM 19.4 °F 1.1 °F 8.6 °F 63% 30.10 in 10.0 mi NW 27.6 mph 33.4 mph 0.01 in   Clear
7:15 AM 19.4 °F 1.4 °F 8.6 °F 63% 30.11 in 10.0 mi NW 26.5 mph 33.4 mph N/A   Clear
7:35 AM 19.4 °F 2.1 °F 10.4 °F 68% 30.13 in 10.0 mi NW 24.2 mph 33.4 mph N/A   Clear
7:55 AM 19.4 °F 3.2 °F 8.6 °F 63% 30.14 in 10.0 mi NW 20.7 mph 32.2 mph 0.01 in   Clear
8:15 AM 21.2 °F 4.9 °F 10.4 °F 63% 30.15 in 10.0 mi NW 23.0 mph 31.1 mph N/A   Clear
8:35 AM 19.4 °F 2.8 °F 10.4 °F 68% 30.16 in 10.0 mi NW 21.9 mph 31.1 mph N/A   Clear
8:55 AM 21.2 °F 4.9 °F 8.6 °F 58% 30.18 in 10.0 mi NW 23.0 mph 29.9 mph N/A   Clear
9:15 AM 21.2 °F 5.6 °F 8.6 °F 58% 30.19 in 10.0 mi NW 20.7 mph 29.9 mph N/A   Clear
9:35 AM 21.2 °F 6.0 °F 6.8 °F 54% 30.19 in 10.0 mi NW 19.6 mph 26.5 mph N/A   Clear
9:55 AM 21.2 °F 5.6 °F 8.6 °F 58% 30.19 in 10.0 mi NW 20.7 mph 28.8 mph 0.01 in   Clear
10:15 AM 21.2 °F 5.6 °F 8.6 °F 58% 30.20 in 10.0 mi NW 20.7 mph 27.6 mph N/A   Clear
10:35 AM 21.2 °F 4.9 °F 8.6 °F 58% 30.20 in 10.0 mi NW 23.0 mph 29.9 mph 0.01 in   Clear
10:55 AM 23.0 °F 9.2 °F 8.6 °F 54% 30.21 in 10.0 mi NW 17.3 mph 28.8 mph 0.03 in   Clear
11:15 AM 23.0 °F 7.6 °F 8.6 °F 54% 30.21 in 10.0 mi NW 21.9 mph 27.6 mph 0.01 in   Clear
11:35 AM 24.8 °F 9.3 °F 8.6 °F 50% 30.21 in 10.0 mi NW 24.2 mph 31.1 mph 0.01 in   Clear
11:55 AM 24.8 °F 9.3 °F 8.6 °F 50% 30.22 in 10.0 mi NW 24.2 mph 32.2 mph 0.01 in   Clear
12:15 PM 24.8 °F 10.0 °F 8.6 °F 50% 30.21 in 10.0 mi NW 21.9 mph 32.2 mph N/A   Clear
12:35 PM 24.8 °F 9.0 °F 8.6 °F 50% 30.21 in 10.0 mi NW 25.3 mph 33.4 mph N/A   Clear
12:55 PM 24.8 °F 8.4 °F 8.6 °F 50% 30.21 in 10.0 mi NW 27.6 mph 34.5 mph N/A   Clear
1:15 PM 26.6 °F 11.7 °F 8.6 °F 47% 30.22 in 10.0 mi NW 24.2 mph 32.2 mph N/A   Clear
1:35 PM 26.6 °F 12.4 °F 8.6 °F 47% 30.22 in 10.0 mi NNW 21.9 mph 33.4 mph N/A   Clear
1:55 PM 26.6 °F 14.3 °F 8.6 °F 47% 30.23 in 10.0 mi NW 16.1 mph 28.8 mph N/A   Clear
2:15 PM 26.6 °F 13.1 °F 6.8 °F 43% 30.24 in 10.0 mi NNW 19.6 mph 31.1 mph 0.01 in   Clear
2:35 PM 26.6 °F 11.4 °F 8.6 °F 47% 30.24 in 10.0 mi NW 25.3 mph 29.9 mph 0.01 in   Clear
2:55 PM 26.6 °F 12.7 °F 10.4 °F 51% 30.25 in 10.0 mi NNW 20.7 mph 32.2 mph 0.01 in   Clear
3:15 PM 26.6 °F 12.0 °F 8.6 °F 47% 30.26 in 10.0 mi NW 23.0 mph 32.2 mph N/A   Clear
3:35 PM 26.6 °F 12.7 °F 8.6 °F 47% 30.26 in 10.0 mi NW 20.7 mph 28.8 mph N/A   Clear
3:55 PM 26.6 °F 12.7 °F 6.8 °F 43% 30.26 in 10.0 mi NW 20.7 mph 28.8 mph N/A   Clear
4:15 PM 26.6 °F 12.4 °F 8.6 °F 47% 30.26 in 10.0 mi NW 21.9 mph 31.1 mph N/A   Clear
4:35 PM 26.6 °F 12.4 °F 6.8 °F 43% 30.26 in 10.0 mi NW 21.9 mph 28.8 mph 0.01 in   Clear
4:55 PM 26.6 °F 12.7 °F 6.8 °F 43% 30.28 in 10.0 mi NW 20.7 mph 28.8 mph 0.02 in   Clear
5:15 PM 26.6 °F 13.4 °F 8.6 °F 47% 30.28 in 10.0 mi NW 18.4 mph 27.6 mph N/A   Clear
5:35 PM 26.6 °F 12.7 °F 6.8 °F 43% 30.30 in 10.0 mi NW 20.7 mph 26.5 mph 0.01 in   Clear
5:55 PM 26.6 °F 12.4 °F 8.6 °F 47% 30.30 in 10.0 mi NNW 21.9 mph 29.9 mph 0.01 in   Clear
6:15 PM 26.6 °F 12.7 °F 6.8 °F 43% 30.31 in 10.0 mi NW 20.7 mph 25.3 mph 0.01 in   Clear
6:35 PM 26.6 °F 13.1 °F 8.6 °F 47% 30.31 in 10.0 mi NW 19.6 mph 24.2 mph 0.02 in   Clear
6:55 PM 26.6 °F 13.1 °F 6.8 °F 43% 30.32 in 10.0 mi NW 19.6 mph 27.6 mph 0.02 in   Clear
7:15 PM 26.6 °F 14.7 °F 8.6 °F 47% 30.33 in 10.0 mi NNW 15.0 mph 23.0 mph N/A   Clear
7:35 PM 26.6 °F 13.4 °F 6.8 °F 43% 30.33 in 10.0 mi NNW 18.4 mph 25.3 mph N/A   Clear
7:55 PM 26.6 °F 13.1 °F 6.8 °F 43% 30.33 in 10.0 mi NNW 19.6 mph 26.5 mph N/A   Clear
8:15 PM 26.6 °F 13.8 °F 6.8 °F 43% 30.34 in 10.0 mi North 17.3 mph 25.3 mph N/A   Clear
8:35 PM 24.8 °F 11.1 °F 6.8 °F 46% 30.34 in 10.0 mi NNW 18.4 mph 24.2 mph N/A   Clear
8:55 PM 24.8 °F 11.9 °F 8.6 °F 50% 30.35 in 10.0 mi North 16.1 mph 20.7 mph N/A   Clear
9:15 PM 24.8 °F 12.4 °F 8.6 °F 50% 30.34 in 10.0 mi NNW 15.0 mph 19.6 mph N/A   Clear
9:35 PM 24.8 °F 13.4 °F 8.6 °F 50% 30.34 in 10.0 mi North 12.7 mph 18.4 mph 0.01 in   Clear
9:55 PM 24.8 °F 13.4 °F 8.6 °F 50% 30.34 in 10.0 mi NNW 12.7 mph - 0.01 in   Clear
10:15 PM 24.8 °F 13.4 °F 10.4 °F 54% 30.34 in 10.0 mi NNW 12.7 mph - 0.03 in   Clear
10:35 PM 24.8 °F 14.0 °F 12.2 °F 59% 30.32 in 10.0 mi North 11.5 mph 18.4 mph 0.07 in   Clear
10:55 PM 24.8 °F 13.4 °F 10.4 °F 54% 30.30 in 10.0 mi NNE 12.7 mph - 0.08 in   Clear
11:15 PM 26.6 °F 16.2 °F 10.4 °F 51% 30.31 in 10.0 mi NNE 11.5 mph - 0.03 in   Clear
11:35 PM 26.6 °F 19.1 °F 10.4 °F 51% 30.32 in 10.0 mi NNE 6.9 mph 17.3 mph 0.03 in   Clear
11:55 PM 26.6 °F 18.2 °F 10.4 °F 51% 30.34 in 10.0 mi North 8.1 mph - 0.03 in   Clear